Change the Weather History Date:

Sunday, March 10, 2013

  Actual Average Record
Temperature  
Mean Temperature 45 °F -  
Max Temperature 62 °F 44 °F 72 °F (1986)
Min Temperature 28 °F 28 °F 5 °F (1984)
Degree Days  
Heating Degree Days 20    
Moisture  
Dew Point 24 °F    
Average Humidity 47    
Maximum Humidity 82    
Minimum Humidity 19    
Precipitation  
Precipitation 0.00 in - - ()
Sea Level Pressure  
Sea Level Pressure 30.27 in    
Wind  
Wind Speed 4 mph (SE)    
Max Wind Speed 14 mph    
Max Gust Speed 20 mph    
Visibility 10 miles    
Events      
Averages and records for this station are not official NWS values.
T = Trace of Precipitation, MM = Missing Value Source: NWS Daily Summary

Daily Weather History Graph

Daily Weather History Graph

Search for Another Location

Airport or City:

Trip Planner

Search our weather history database for the weather conditions in past years. The results will help you decide how hot, cold, wet, or windy it might be!

Date:

Astronomy

Mar. 10, 2013 Rise Set
Actual Time 7:26 AM EDT 7:09 PM EDT
Civil Twilight 6:59 AM EDT 7:36 PM EDT
Nautical Twilight 6:28 AM EDT 8:07 PM EDT
Astronomical Twilight 5:56 AM EDT 8:39 PM EDT
Moon 6:25 AM EDT (3/10) 6:14 PM EDT (3/10)
Length of Visible Light 12h 36m
Length of Day
11h 42m
Waning Crescent, 2% of the Moon is Illuminated
Mar 10
Waning Crescent
Mar 11
New
Mar 19
First Quarter
Mar 27
Full
Apr 3
Last Quarter

Hourly Weather History & Observations

Time (EDT) Temp. Windchill Dew Point Humidity Pressure Visibility Wind Dir Wind Speed Gust Speed Precip Events Conditions
12:56 AM 32.0 °F - 24.1 °F 73% 30.31 in 10.0 mi Calm Calm - N/A   Clear
1:56 AM 30.0 °F - 23.0 °F 75% 30.31 in 10.0 mi Calm Calm - N/A   Clear
3:56 AM 30.0 °F - 23.0 °F 75% 30.30 in 10.0 mi Calm Calm - N/A   Clear
4:56 AM 30.0 °F - 24.1 °F 79% 30.29 in 10.0 mi Calm Calm - N/A   Clear
5:56 AM 28.9 °F - 24.1 °F 82% 30.30 in 10.0 mi Calm Calm - N/A   Clear
6:56 AM 28.9 °F - 24.1 °F 82% 30.32 in 10.0 mi Calm Calm - N/A   Clear
8:56 AM 37.9 °F - 26.1 °F 62% 30.33 in 10.0 mi Calm Calm - N/A   Partly Cloudy
9:56 AM 39.9 °F 36.7 °F 25.0 °F 55% 30.33 in 10.0 mi East 4.6 mph - N/A   Clear
10:56 AM 46.0 °F 41.4 °F 26.1 °F 46% 30.33 in 10.0 mi East 9.2 mph - N/A   Mostly Cloudy
11:56 AM 51.1 °F - 28.0 °F 41% 30.32 in 10.0 mi ESE 9.2 mph - N/A   Clear
12:56 PM 55.0 °F - 28.0 °F 35% 30.30 in 10.0 mi East 6.9 mph - N/A   Overcast
1:56 PM 60.1 °F - 24.1 °F 25% 30.26 in 10.0 mi SSE 12.7 mph 19.6 mph N/A   Scattered Clouds
2:56 PM 62.1 °F - 24.1 °F 23% 30.24 in 10.0 mi SSE 8.1 mph 17.3 mph N/A   Partly Cloudy
3:56 PM 62.1 °F - 21.0 °F 21% 30.22 in 10.0 mi SSE 12.7 mph 19.6 mph N/A   Clear
4:56 PM 61.0 °F - 21.9 °F 22% 30.21 in 10.0 mi South 6.9 mph 18.4 mph N/A   Clear
5:56 PM 60.1 °F - 21.0 °F 22% 30.21 in 10.0 mi SE 13.8 mph 18.4 mph N/A   Clear
6:56 PM 55.9 °F - 14.0 °F 19% 30.22 in 10.0 mi SSE 13.8 mph - N/A   Clear
7:56 PM 54.0 °F - 16.0 °F 22% 30.23 in 10.0 mi SSE 9.2 mph - N/A   Clear
8:56 PM 52.0 °F - 19.0 °F 27% 30.24 in 10.0 mi SSE 12.7 mph - N/A   Clear
9:56 PM 48.9 °F - 24.1 °F 38% 30.24 in 10.0 mi SE 9.2 mph - N/A   Clear
10:56 PM 46.0 °F 44.8 °F 30.0 °F 54% 30.25 in 10.0 mi ESE 3.5 mph - N/A   Clear
11:56 PM 48.0 °F - 28.9 °F 48% 30.24 in 10.0 mi SSE 11.5 mph 18.4 mph N/A   Clear
12:56 AM 44.1 °F 40.1 °F 33.1 °F 65% 30.23 in 10.0 mi ENE 6.9 mph - N/A   Clear